Regional Weather Roundup
Issued by NWS

Home | Current Version | Previous Version | Graphics & Text | Print | Product List | Glossary On
Versions: 1 2 3 4 5 6 7 8 9 10 11 12 13 14 15 16 17 18 19 20 21 22 23 24 25 26 27 28 29 30 31 32 33 34 35 36 37 38 39 40 41 42 43 44 45 46 47 48 49 50
000
ASUS43 KIND 221959
RWRIN

WEATHER ROUNDUP FOR INDIANA
NATIONAL WEATHER SERVICE INDIANAPOLIS IN
400 PM EDT WED MAR 22 2017

NOTE: "FAIR" INDICATES FEW OR NO CLOUDS BELOW 12,000 FEET WITH NO
SIGNIFICANT WEATHER AND/OR OBSTRUCTIONS TO VISIBILITY.

* - STATION DOES NOT REPORT WEATHER SUCH AS PRECIPITATION OR FOG.

+ - STATION NOT QUALITY CONTROLLED BY THE NATIONAL WEATHER SERVICE.
    USE DATA WITH CAUTION...ESPECIALLY DEWPOINT AND RELATIVE
    HUMIDITY OBSERVATIONS.

INZ001>003-010>013-019-020-222100-
NORTHWEST INDIANA

CITY           SKY/WX    TMP DP  RH WIND       PRES   REMARKS
GARY /AIRPORT/   N/A     34  16  47 NE12      30.57F WCI  25
KNOX *+        SUNNY     36 -15  11 E3        30.53F
MICHIGAN CITY+ SUNNY     32  19  59 N9        30.55F WCI  24
MONTICELLO +   SUNNY     36  15  42 CALM      30.52S
RENSSELAER +   SUNNY     37  18  44 E5        30.53F

$$

LMZ046-743>745-222100-
SOUTHERN LAKE MICHIGAN

STATION/POSITION TIME  TEMP    WIND        PRES    WAVE
                       AIR SEA DIR/SP/G            HT
                 (UTC) (F)     (DEG/KT/KT) (MB)    (FT)
BURNS HARBOR     1940   28      10/  6/ 10 1035.2F
MICHIGAN CITY    1930   28     360/ 10/ 10   N/A

$$

INZ004-005-014>016-021>024-222100-
NORTH CENTRAL INDIANA

CITY           SKY/WX    TMP DP  RH WIND       PRES   REMARKS
ELKHART        SUNNY     36  10  35 E6        30.53F
GOSHEN         SUNNY     36  10  34 NE5       30.53F
SOUTH BEND     SUNNY     35  10  35 SE6       30.54F WCI  30

$$

INZ006>009-017-018-025>027-222100-
NORTHEAST INDIANA

CITY           SKY/WX    TMP DP  RH WIND       PRES   REMARKS
ANGOLA *+      SUNNY     36  21  55 SE8       30.52F
FORT WAYNE     SUNNY     35  13  40 E8        30.53F WCI  29
KENDALLVILLE + SUNNY     35  12  39 E3        30.52F

$$

INZ028-029-035-036-043>045-051>053-222100-
WEST CENTRAL INDIANA

CITY           SKY/WX    TMP DP  RH WIND       PRES   REMARKS
CRAWFORDSVL +  SUNNY     37  20  49 E10G16    30.48F
GREENCASTLE +  SUNNY     41  18  38 E12       30.46F
LAFAYETTE      SUNNY     37  20  50 NE9G20    30.51F
TERRE HAUTE    SUNNY     43  16  33 NE12G17   30.45F

$$

INZ030>032-037>040-046>048-054>057-064-065-222100-
CENTRAL INDIANA

CITY           SKY/WX    TMP DP  RH WIND       PRES   REMARKS
ANDERSON       SUNNY     37  19  48 NE12      30.49F
GREENWOOD *+   SUNNY     39  20  45 E7G16     30.47F
INDIANAPOLIS   MOSUNNY   39  16  39 E6        30.47F
-EAGLE CREEK   SUNNY     40  15  36 NE9G21    30.47F
KOKOMO +       SUNNY     36  22  56 N10       30.51F
SHELBYVILLE    SUNNY     40  19  43 NE13G20   30.46F

$$

INZ033-034-041-042-049-050-058-059-222100-
EAST CENTRAL INDIANA

CITY           SKY/WX    TMP DP  RH WIND       PRES   REMARKS
MUNCIE         SUNNY     37  20  50 VRB6      30.49F
RICHMOND +     SUNNY     34  19  55 NE8       30.47F WCI  27

$$

INZ060-061-067>069-081>083-085>088-222100-
SOUTHWEST INDIANA

CITY           SKY/WX    TMP DP  RH WIND       PRES   REMARKS
EVANSVILLE     SUNNY     53  18  25 NE14      30.39F
HUNTINGBURG *+ SUNNY     48  20  32 NE15G23   30.39F

$$

INZ062-063-066-070>080-084-089>092-222100-
SOUTH CENTRAL AND SOUTHEAST INDIANA

CITY           SKY/WX    TMP DP  RH WIND       PRES   REMARKS
BLOOMINGTON    SUNNY     44  14  29 NE13G21   30.43F
MADISON *+     SUNNY     43  12  28 NE8G17    30.45F
SEYMOUR +      SUNNY     45  19  36 NE14      30.44F

$$





USA.gov is the U.S. government's official web portal to all federal, state and local government web resources and services.